K3FEF-13 Weather Reports


Display with metric or nautical units.
time (UTC)temp
F
wind
direction
speed
MPH
gust
MPH
rain 1hr
in
rain 24hr
in
rain mn
in
humidity
%
barometer
mb
20260506072516 62 0.0 0.0 0.00 0.00 0.00 69 1011.6
20260506071517 63 0.0 0.0 0.00 0.00 0.00 68 1011.7
20260506070558 63 0.0 0.0 0.00 0.00 0.00 67 1011.7
20260506062516 64 0.0 0.0 0.00 0.00 0.00 65 1012.2
20260506061516 64 0.0 0.0 0.00 0.00 0.00 65 1012.4
20260506060516 64 0.0 0.0 0.00 0.00 0.00 65 1012.4
20260506050516 65 0.0 3.0 0.00 0.00 0.00 62 1012.7
20260506044516 66 90 1.0 7.0 0.00 0.00 0.00 60 1012.6
20260506043516 66 0.0 3.0 0.00 0.00 0.00 59 1012.7
20260506042516 66 203 1.0 6.0 0.00 0.00 0.00 59 1012.6
20260506041516 66 248 1.0 5.0 0.00 0.00 0.00 58 1012.6
20260506040515 66 0 1.0 3.0 0.00 0.00 0.00 58 1012.6
20260506035517 66 113 1.0 3.0 0.00 0.00 0.00 58 1012.6
20260506034516 66 0.0 4.0 0.00 0.00 0.00 58 1012.4
20260506033516 66 293 1.0 7.0 0.00 0.00 0.00 57 1012.4
20260506032516 67 135 1.0 5.0 0.00 0.00 0.00 57 1012.5
20260506031557 66 0.0 2.0 0.00 0.00 0.00 57 1012.4
20260506030516 67 0.0 2.0 0.00 0.00 0.00 56 1012.6
20260506025516 67 158 1.0 5.0 0.00 0.00 0.00 55 1012.6
20260506024516 67 0.0 0.0 0.00 0.00 0.00 54 1012.6
20260506023516 68 0.0 1.0 0.00 0.00 0.00 54 1012.7
20260506022516 69 0.0 0.0 0.00 0.00 0.00 51 1012.6
20260506021516 69 0.0 3.0 0.00 0.00 0.00 51 1012.6
20260506020516 70 0.0 6.0 0.00 0.00 0.00 50 1012.7
20260506015516 70 248 1.0 3.0 0.00 0.00 0.00 49 1012.4
20260506014516 70 0.0 2.0 0.00 0.00 0.00 50 1012.4
20260506013516 71 270 1.0 4.0 0.00 0.00 0.00 48 1012.2
20260506012516 71 270 1.0 6.0 0.00 0.00 0.00 48 1012.2
20260506011516 71 293 1.0 6.0 0.00 0.00 0.00 47 1012.0
20260506010516 71 0.0 3.0 0.00 0.00 0.00 47 1011.8
20260506005516 72 270 1.0 3.0 0.00 0.00 0.00 46 1011.8
20260506004516 71 270 1.0 5.0 0.00 0.00 0.00 47 1011.7
20260506003516 71 0.0 0.0 0.00 0.00 0.00 47 1011.5
20260506002516 72 0.0 0.0 0.00 0.00 0.00 47 1011.4
20260506001516 72 0.0 0.0 0.00 0.00 0.00 48 1011.5
20260506000516 72 0.0 0.0 0.00 0.00 0.00 47 1011.3
20260505235516 72 0.0 0.0 0.00 0.00 0.00 47 1011.2
20260505234516 72 0.0 0.0 0.00 0.00 0.00 47 1011.2
20260505233516 73 0.0 0.0 0.00 0.00 0.00 46 1010.9
20260505232516 73 0.0 0.0 0.00 0.00 0.00 46 1010.9
20260505231536 73 0.0 0.0 0.00 0.00 0.00 45 1010.7
20260505230536 74 0.0 0.0 0.00 0.00 0.00 45 1010.7
20260505225516 74 0.0 0.0 0.00 0.00 0.00 44 1010.6
20260505224536 74 0.0 0.0 0.00 0.00 0.00 43 1010.5
20260505223516 74 0.0 0.0 0.00 0.00 0.00 43 1010.4
20260505222516 74 0.0 0.0 0.00 0.00 0.00 43 1010.3
20260505221516 75 0.0 0.0 0.00 0.00 0.00 43 1010.4
20260505220536 75 0.0 0.0 0.00 0.00 0.00 42 1010.3
20260505215516 76 0.0 0.0 0.00 0.00 0.00 44 1010.4
20260505214516 76 0.0 0.0 0.00 0.00 0.00 42 1010.2
20260505213516 76 0.0 0.0 0.00 0.00 0.00 40 1010.0
20260505212516 77 0.0 0.0 0.00 0.00 0.00 35 1010.0
20260505211516 77 293 1.0 2.0 0.00 0.00 0.00 34 1010.0
20260505210516 78 293 2.0 9.0 0.00 0.00 0.00 35 1010.1
20260505205536 78 225 3.0 10.0 0.00 0.00 0.00 33 1009.7
20260505204516 79 225 3.0 7.0 0.00 0.00 0.00 32 1010.1
20260505203516 78 248 2.0 7.0 0.00 0.00 0.00 34 1009.9
20260505202516 79 225 2.0 7.0 0.00 0.00 0.00 32 1009.8
20260505201516 79 225 2.0 5.0 0.00 0.00 0.00 33 1009.7
20260505200516 79 248 3.0 15.0 0.00 0.00 0.00 33 1009.9
20260505195515 79 293 3.0 8.0 0.00 0.00 0.00 32 1009.9
20260505194516 78 248 4.0 9.0 0.00 0.00 0.00 33 1010.0
20260505193536 78 293 2.0 6.0 0.00 0.00 0.00 34 1010.3
20260505192516 79 293 3.0 13.0 0.00 0.00 0.00 33 1010.5
20260505191516 80 270 3.0 8.0 0.00 0.00 0.00 34 1010.5
20260505190515 80 203 2.0 7.0 0.00 0.00 0.00 35 1010.8
20260505185515 80 270 3.0 8.0 0.00 0.00 0.00 34 1010.9
20260505184535 80 293 3.0 13.0 0.00 0.00 0.00 37 1011.0
20260505183515 80 270 2.0 11.0 0.00 0.00 0.00 37 1011.2
20260505182515 79 225 4.0 12.0 0.00 0.00 0.00 36 1011.4
20260505181515 80 270 4.0 12.0 0.00 0.00 0.00 37 1011.3
20260505180515 79 270 3.0 13.0 0.00 0.00 0.00 38 1011.4
20260505175515 79 248 3.0 10.0 0.00 0.00 0.00 39 1011.4
20260505174515 79 0.0 0.0 0.00 0.00 0.00 41 1011.5
20260505173515 79 0.0 0.0 0.00 0.00 0.00 41 1011.5
20260505172515 79 0.0 0.0 0.00 0.00 0.00 38 1011.5
20260505171515 79 0.0 0.0 0.00 0.00 0.00 39 1011.5
20260505170517 79 0.0 0.0 0.00 0.00 0.00 41 1011.7
20260505165517 78 0.0 0.0 0.00 0.00 0.00 44 1011.8
20260505164515 78 0.0 0.0 0.00 0.00 0.00 46 1011.8
20260505163517 78 0.0 0.0 0.00 0.00 0.00 45 1012.1
20260505162515 78 0.0 0.0 0.00 0.00 0.00 46 1012.0
20260505161517 78 0.0 0.0 0.00 0.00 0.00 44 1012.4
20260505160517 76 0.0 0.0 0.00 0.00 0.00 46 1012.3
20260505152517 75 0.0 0.0 0.00 0.00 0.00 50 1012.8
20260505151558 73 0.0 0.0 0.00 0.00 0.00 52 1012.9
20260505150517 73 0.0 0.0 0.00 0.00 0.00 54 1013.0
20260505140517 71 0.0 0.0 0.00 0.00 0.00 54 1013.3
20260505124517 67 0.0 0.0 0.00 0.00 0.00 60 1013.3
20260505123517 67 0.0 0.0 0.00 0.00 0.00 60 1013.2
20260505122517 66 0.0 0.0 0.00 0.00 0.00 60 1013.2
20260505121517 66 0.0 0.0 0.00 0.00 0.00 63 1013.3
20260505120517 65 0.0 0.0 0.00 0.00 0.00 64 1013.5
20260505115517 65 0.0 0.0 0.00 0.00 0.00 65 1013.2
20260505114517 64 0.0 0.0 0.00 0.00 0.00 67 1013.1
20260505113537 63 0.0 0.0 0.00 0.00 0.00 68 1013.1
20260505112557 62 0.0 0.0 0.00 0.00 0.00 70 1013.1
20260505111537 60 0.0 0.0 0.00 0.00 0.00 73 1013.0
20260505110517 57 0.0 0.0 0.00 0.00 0.00 77 1012.7
20260505101517 55 0.0 0.0 0.00 0.00 0.00 76 1012.6
20260505100516 56 0.0 0.0 0.00 0.00 0.00 74 1012.5
20260505095516 56 0.0 0.0 0.00 0.00 0.00 72 1012.6
20260505094518 56 0.0 0.0 0.00 0.00 0.00 70 1012.6
20260505093516 55 0.0 0.0 0.00 0.00 0.00 70 1012.5
20260505092516 55 0.0 0.0 0.00 0.00 0.00 70 1012.6
20260505091516 55 0.0 0.0 0.00 0.00 0.00 69 1012.5
20260505090516 55 0.0 0.0 0.00 0.00 0.00 69 1012.2
20260505085617 55 0.0 0.0 0.00 0.00 0.00 69 1012.3
20260505084516 55 0.0 0.0 0.00 0.00 0.00 68 1012.3
20260505083516 56 0.0 0.0 0.00 0.00 0.00 67 1012.1
20260505082516 56 0.0 0.0 0.00 0.00 0.00 66 1012.1
20260505081516 56 0.0 0.0 0.00 0.00 0.00 66 1012.0
20260505080516 56 0.0 0.0 0.00 0.00 0.00 65 1012.0